Terminal Aerodrome Forecast
Issued by NWS Des Moines, IA

Home | Current Version | Previous Version | Text Only | Print | Product List | Glossary On
Versions: 1 2 3 4 5 6 7 8 9 10 11 12 13 14 15
000
FTUS43 KDMX 092338
TAFDSM
TAF
KDSM 092338Z 1000/1024 VRB04KT P6SM OVC080
     FM101400 14004KT P6SM OVC060
     FM101700 14008KT P6SM OVC025
     FM102000 12011KT 3SM -SN OVC035=

USA.gov is the U.S. government's official web portal to all federal, state and local government web resources and services.